Location: Del Amo
(33.8464°N, 118.2104°W)
Time: 16:53:20
(UTC+00:00)

Tiros 1 despin weight - Pass Details

Date: 19 September 2024
Orbit: 572 x 614 km, 48.2° (Epoch: 12 October)

Event Time Altitude Azimuth Distance (km) Brightness Sun altitude
Exits shadow 10:52:33 14° 14° (NNE) 1,730 ? -34.0°
Drops below altitude 10° 10:53:38 10° 27° (NNE) 1,974 ? -33.8°
Sets 10:56:37 0° 46° (NE) 2,884 ? -33.3°
